THORAD AGENA D DEB, 4996

Orbit data source: Space-Track

THORAD AGENA D DEB, 4996 is space debris in SSO originally from a launch on Wed, 08 Apr 1970 UTC launched from the Air Force Western Test Range (AFWTR). Debris objects in space refer to the collection of defunct objects orbiting the Earth. Examples of debris include non-operational satellites, rocket bodies, and fragments generated from explosions, collisions, or faulty payload assembly.

Loading next visibility...
Identifier
4996, 1970-025HS
Orbit
SSO
Country
Flag of USUS
Related business
Manufacturer
Unknown
Mission
Spacecraft
Bus & Motor
Unknown
Mass
Unknown
Launch date (UTC)
1970-04-08 (56 years ago)
Launch vehicle
Unknown
Launch site
Air Force Western Test Range (AFWTR)
Object type
Payload
Rocket body
Debris
Shape & HBR
Unknown shape, 0.1 m
Radar Cross Section
Medium (>0.1 m² and <1 m²)

Expand to show TLE details & history
Last TLE update: 10 hours ago

TLE from 10 hours ago
0 THORAD AGENA D DEB
1  4996U 70025HS  26208.33052230  .00002173  00000-0  12005-2 0  9991
2  4996 100.3449 334.8014 0067859 330.8466  28.8919 14.11617995823890
Epoch: 2026-07-27T07:55Z
TLE epoch observation values (Epoch: 2026-07-27T07:55:57.126Z)
Latitude
-0.00007°
Longitude
-89.20225°
Altitude
813.79 km
Speed
7.468 km/s
True Right ascension
22h 19m 12s
True Declination
0° 00' 00"
Sunlit
Object was in full shadow at epoch
Visualization orbit readout
Latitude
Unknown
Longitude
Unknown
Altitude
Unknown
Speed
Unknown
Apparent Right ascension
Unknown
Apparent Declination
Unknown
Sunlit
N/A
Visualization observer readout
Local Sidereal Time
07:37:01
Azimuth
Unknown
Elevation
Unknown
Doppler factor
Unknown
Orbital elements
Apogee altitude
900.152 km
Perigee altitude
802.038 km
Semi-major axis
7,229.232 km
Eccentricity
0.00679
Inclination
100.3449°
RAAN
334.8014°
Arg. of periapsis
330.8466°
True anomaly
29.27041°
Mean anomaly
28.8919°
Eccentric anomaly
29.08088°
Mean motion
3.53106 °/min
Orbital period
101.95 mins
BSTAR
0.0012005
Loading maneuver chart data...
Computing Atmospheric mass density...

Documentation

Showing up to 5 results
|